Weather History for Copper Harbor, MI

Change the Weather History Date:

Sunday, February 24, 2013

  Actual Average Record
Temperature  
Mean Temperature 27 °F -  
Max Temperature 28 °F 26 °F 39 °F (1998)
Min Temperature 26 °F 14 °F 1 °F (1997)
Degree Days  
Heating Degree Days 38    
Moisture  
Dew Point 22 °F    
Average Humidity 80    
Maximum Humidity 88    
Minimum Humidity 72    
Precipitation  
Precipitation 0.00 in - - ()
Sea Level Pressure  
Sea Level Pressure 30.04 in    
Wind  
Wind Speed 9 mph (NNE)    
Max Wind Speed 14 mph    
Max Gust Speed 17 mph    
Averages and records for this station are not official NWS values.
T = Trace of Precipitation, MM = Missing Value Source: NWS Daily Summary

Daily Weather History Graph

Daily Weather History Graph

Search for Another Location

Airport:

Trip Planner

Search our weather history database for the weather conditions in past years. The results will help you decide how hot, cold, wet, or windy it might be!

Date:

Astronomy

Feb. 24, 2013 Rise Set
Actual Time 7:40 AM EST 6:29 PM EST
Civil Twilight 7:09 AM EST 7:00 PM EST
Nautical Twilight 6:34 AM EST 7:36 PM EST
Astronomical Twilight 5:58 AM EST 8:11 PM EST
Moon 5:40 PM EST (2/24) 6:39 AM EST (2/24)
Length of Visible Light 11h 50m
Length of Day
10h 48m
Waxing Gibbous, 99% of the Moon is Illuminated
Feb 24
Waxing Gibbous
Feb 25
Full
Mar 4
Last Quarter
Mar 11
New
Mar 19
First Quarter

Hourly Weather History & Observations

Time (EST) Temp. Windchill Dew Point Humidity Pressure Visibility Wind Dir Wind Speed Gust Speed Precip Events Conditions
12:51 AM 28.0 °F 18.1 °F 25.0 °F 88% 29.90 in - ENE 11.5 mph - N/A   Unknown
1:51 AM 28.0 °F 17.5 °F 25.0 °F 88% 29.91 in - ENE 12.7 mph - N/A   Unknown
2:51 AM 28.0 °F 18.6 °F 24.1 °F 85% 29.93 in - ENE 10.4 mph - N/A   Unknown
3:51 AM 28.0 °F 18.1 °F 24.1 °F 85% 29.94 in - NE 11.5 mph - N/A   Unknown
4:51 AM 27.0 °F 16.7 °F 23.0 °F 85% 29.96 in - NE 11.5 mph - N/A   Unknown
5:51 AM 27.0 °F 18.0 °F 23.0 °F 85% 29.98 in - NE 9.2 mph - N/A   Unknown
6:51 AM 27.0 °F 18.7 °F 21.9 °F 81% 29.99 in - NE 8.1 mph - N/A   Unknown
7:51 AM 27.0 °F 18.0 °F 21.9 °F 81% 30.01 in - NE 9.2 mph - N/A   Unknown
8:51 AM 28.0 °F 17.0 °F 23.0 °F 81% 30.02 in - NNE 13.8 mph 17.3 mph N/A   Unknown
9:51 AM 27.0 °F 17.3 °F 19.9 °F 75% 30.04 in - North 10.4 mph - N/A   Unknown
10:51 AM 27.0 °F 18.7 °F 19.9 °F 75% 30.06 in - North 8.1 mph - N/A   Unknown
11:51 AM 27.0 °F 18.0 °F 21.0 °F 78% 30.07 in - North 9.2 mph - N/A   Unknown
12:51 PM 27.0 °F 19.5 °F 21.0 °F 78% 30.07 in - North 6.9 mph - N/A   Unknown
1:51 PM 28.0 °F 21.7 °F 21.0 °F 75% 30.07 in - North 5.8 mph - N/A   Unknown
2:51 PM 28.0 °F 20.8 °F 19.9 °F 72% 30.08 in - North 6.9 mph - N/A   Unknown
3:51 PM 28.0 °F 24.2 °F 19.9 °F 72% 30.08 in - North 3.5 mph - N/A   Unknown
4:51 PM 28.0 °F 22.8 °F 21.0 °F 75% 30.10 in - NNW 4.6 mph - N/A   Unknown
5:51 PM 28.0 °F - 21.9 °F 78% 30.11 in - Calm Calm - N/A   Unknown
6:51 PM 28.0 °F 24.2 °F 19.9 °F 72% 30.12 in - NW 3.5 mph - N/A   Unknown
7:51 PM 27.0 °F - 21.9 °F 81% 30.12 in - Calm Calm - N/A   Unknown
8:51 PM 27.0 °F - 21.9 °F 81% 30.12 in - Calm Calm - N/A   Unknown
9:51 PM 26.1 °F 21.9 °F 21.9 °F 84% 30.12 in - WSW 3.5 mph - N/A   Unknown
10:51 PM 26.1 °F - 21.9 °F 84% 30.13 in - Calm Calm - N/A   Unknown
11:51 PM 26.1 °F - 21.0 °F 81% 30.12 in - Calm Calm - N/A   Unknown